Location: *
(46.0770°N, 1.6444°E)
Time: 08:32:20
(UTC+00:00)

Cosmos 2366 rocket - Pass Details

Date: 16 September 2019
Orbit: 956 x 996 km, 82.9° (Epoch: 13 October)

Event Time Altitude Azimuth Distance (km) Brightness Sun altitude
Rises 19:40:48 0° 356° (N) 3,721 7.4 -17.2°
Reaches altitude 10° 19:43:29 10° 2° (N) 2,771 6.6 -17.6°
Maximum altitude 19:49:33 45° 74° (ENE) 1,341 4.4 -18.6°
Enters shadow 19:52:03 31° 124° (SE) 1,672 4.7 -19.0°
